| time (UTC) | temp F | wind direction | speed knots | gust knots | rain 1hr in | rain 24hr in | rain mn in | humidity % | barometer mb |
| 20260505002657 | 55 | 297 | 4.3 | 10.4 | 0.00 | 0.00 | 0.00 | 45 | 1001.8 |
| 20260505001655 | 55 | 317 | 1.7 | 7.8 | 0.00 | 0.00 | 0.00 | 46 | 1001.7 |
| 20260505000704 | 53 | 70 | 0.9 | 6.1 | 0.00 | 0.00 | 0.00 | 40 | 1001.6 |
| 20260504235634 | 52 | 42 | 0.9 | 4.3 | 0.00 | 0.00 | 0.00 | 43 | 1001.8 |
| 20260504234645 | 51 | 129 | 1.7 | 9.6 | 0.00 | 0.00 | 0.00 | 44 | 1001.9 |
| 20260504233629 | 51 | 46 | 2.6 | 13.9 | 0.00 | 0.00 | 0.00 | 45 | 1002.1 |
| 20260504231545 | 51 | 87 | 4.3 | 10.4 | 0.00 | 0.00 | 0.00 | 46 | 1001.9 |
| 20260504230602 | 51 | 11 | 1.7 | 8.7 | 0.00 | 0.00 | 0.00 | 48 | 1001.9 |
| 20260504224410 | 49 | 12 | 4.3 | 13.0 | 0.00 | 0.00 | 0.00 | 53 | 1002.2 |
| 20260504223350 | 49 | 13 | 5.2 | 14.8 | 0.00 | 0.00 | 0.00 | 53 | 1002.2 |
| 20260504222352 | 50 | 11 | 3.5 | 15.6 | 0.00 | 0.00 | 0.00 | 53 | 1002.1 |
| 20260504221353 | 50 | 12 | 5.2 | 15.6 | 0.00 | 0.00 | 0.00 | 49 | 1002.0 |
| 20260504220416 | 51 | 11 | 7.0 | 14.8 | 0.00 | 0.00 | 0.00 | 48 | 1001.9 |
| 20260504215434 | 51 | 11 | 5.2 | 14.8 | 0.00 | 0.00 | 0.00 | 48 | 1002.1 |
| 20260504214406 | 51 | 11 | 6.1 | 13.0 | 0.00 | 0.00 | 0.00 | 47 | 1002.1 |
| 20260504213400 | 51 | 11 | 4.3 | 13.0 | 0.00 | 0.00 | 0.00 | 49 | 1002.0 |
| 20260504212415 | 52 | 11 | 5.2 | 12.2 | 0.00 | 0.00 | 0.00 | 47 | 1001.9 |
| 20260504211351 | 53 | 123 | 5.2 | 13.9 | 0.00 | 0.00 | 0.00 | 47 | 1001.8 |
| 20260504210338 | 51 | 11 | 6.1 | 13.9 | 0.00 | 0.00 | 0.00 | 49 | 1001.9 |
| 20260504205339 | 50 | 13 | 7.0 | 13.9 | 0.00 | 0.00 | 0.00 | 54 | 1002.0 |
| 20260504204327 | 49 | 12 | 7.0 | 16.5 | 0.00 | 0.00 | 0.00 | 58 | 1002.0 |
| 20260504203302 | 48 | 11 | 8.7 | 16.5 | 0.00 | 0.00 | 0.00 | 58 | 1002.4 |
| 20260504202241 | 48 | 11 | 7.0 | 14.8 | 0.00 | 0.00 | 0.00 | 55 | 1002.5 |
| 20260504200052 | 51 | 11 | 3.5 | 13.0 | 0.00 | 0.00 | 0.00 | 46 | 1002.4 |
| 20260504193938 | 52 | 15 | 0.9 | 7.0 | 0.00 | 0.00 | 0.00 | 44 | 1002.3 |
| 20260504192921 | 52 | 14 | 1.7 | 7.0 | 0.00 | 0.00 | 0.00 | 43 | 1002.2 |
| 20260504185656 | 54 | 15 | 1.7 | 8.7 | 0.00 | 0.00 | 0.00 | 40 | 1002.1 |
| 20260504184631 | 55 | 14 | 0.0 | 3.5 | 0.00 | 0.00 | 0.00 | 34 | 1002.0 |
| 20260504183653 | 55 | 14 | 0.0 | 0.0 | 0.00 | 0.00 | 0.00 | 32 | 1002.0 |
| 20260504182655 | 55 | 14 | 0.0 | 0.0 | 0.00 | 0.00 | 0.00 | 30 | 1002.0 |
| 20260504181622 | 55 | 13 | 1.7 | 8.7 | 0.00 | 0.00 | 0.00 | 32 | 1002.0 |
| 20260504180627 | 56 | 9 | 5.2 | 9.6 | 0.00 | 0.00 | 0.00 | 33 | 1002.1 |
| 20260504175651 | 58 | 332 | 2.6 | 10.4 | 0.00 | 0.00 | 0.00 | 35 | 1002.2 |
| 20260504174619 | 57 | 335 | 4.3 | 10.4 | 0.00 | 0.00 | 0.00 | 36 | 1002.2 |
| 20260504173606 | 58 | 9 | 3.5 | 9.6 | 0.00 | 0.00 | 0.00 | 35 | 1002.4 |
| 20260504171421 | 57 | 12 | 1.7 | 6.1 | 0.00 | 0.00 | 0.00 | 37 | 1002.5 |
| 20260504170352 | 56 | 296 | 2.6 | 8.7 | 0.00 | 0.00 | 0.00 | 37 | 1002.7 |
| 20260504150352 | 52 | 323 | 0.9 | 4.3 | 0.00 | 0.00 | 0.00 | 45 | 1003.1 |
| 20260504140348 | 45 | 166 | 0.9 | 2.6 | 0.00 | 0.00 | 0.00 | 61 | 1003.2 |
| 20260504130325 | 41 | 165 | 2.6 | 4.3 | 0.00 | 0.00 | 0.00 | 65 | 1003.6 |
| 20260504120155 | 41 | 156 | 0.0 | 0.0 | 0.00 | 0.00 | 0.00 | 60 | 1004.0 |
| 20260504081520 | 41 | 142 | 5.2 | 7.8 | 0.00 | 0.00 | 0.00 | 50 | 1004.2 |
| 20260504070333 | 40 | 140 | 5.2 | 7.8 | 0.00 | 0.00 | 0.00 | 50 | 1004.6 |
| 20260504050202 | 42 | 135 | 5.2 | 7.8 | 0.00 | 0.00 | 0.00 | 46 | 1005.6 |
| 20260504045225 | 43 | 124 | 4.3 | 7.8 | 0.00 | 0.00 | 0.00 | 46 | 1005.7 |
| 20260504044227 | 43 | 134 | 5.2 | 7.8 | 0.00 | 0.00 | 0.00 | 45 | 1005.6 |
| 20260504043208 | 43 | 138 | 4.3 | 7.0 | 0.00 | 0.00 | 0.00 | 45 | 1005.7 |
| 20260504042206 | 44 | 136 | 4.3 | 7.0 | 0.00 | 0.00 | 0.00 | 44 | 1005.7 |
| 20260504041215 | 44 | 132 | 3.5 | 6.1 | 0.00 | 0.00 | 0.00 | 44 | 1005.7 |
| 20260504040201 | 45 | 142 | 3.5 | 7.8 | 0.00 | 0.00 | 0.00 | 43 | 1005.7 |
| 20260504035202 | 45 | 140 | 4.3 | 7.8 | 0.00 | 0.00 | 0.00 | 41 | 1005.7 |
| 20260504034200 | 45 | 121 | 4.3 | 7.0 | 0.00 | 0.00 | 0.00 | 41 | 1005.7 |
| 20260504032051 | 46 | 133 | 0.0 | 0.0 | 0.00 | 0.00 | 0.00 | 40 | 1005.7 |
| 20260504031026 | 46 | 127 | 0.0 | 0.0 | 0.00 | 0.00 | 0.00 | 40 | 1005.8 |
| 20260504030045 | 47 | 136 | 0.0 | 0.0 | 0.00 | 0.00 | 0.00 | 39 | 1005.8 |
| 20260504025055 | 48 | 138 | 0.0 | 0.0 | 0.00 | 0.00 | 0.00 | 39 | 1005.8 |
| 20260504024022 | 48 | 127 | 0.0 | 0.0 | 0.00 | 0.00 | 0.00 | 38 | 1005.8 |
| 20260504023008 | 49 | 138 | 0.0 | 0.0 | 0.00 | 0.00 | 0.00 | 36 | 1005.8 |
| 20260504022014 | 50 | 136 | 0.0 | 0.0 | 0.00 | 0.00 | 0.00 | 36 | 1005.9 |
| 20260504021010 | 52 | 141 | 0.0 | 0.0 | 0.00 | 0.00 | 0.00 | 33 | 1005.9 |
| 20260504020014 | 53 | 150 | 0.0 | 0.0 | 0.00 | 0.00 | 0.00 | 29 | 1006.0 |
| 20260504014944 | 54 | 264 | 0.0 | 0.0 | 0.00 | 0.00 | 0.00 | 26 | 1006.0 |
| 20260504013918 | 55 | 265 | 0.0 | 0.0 | 0.00 | 0.00 | 0.00 | 22 | 1006.0 |
| 20260504011758 | 56 | 265 | 0.0 | 0.0 | 0.00 | 0.00 | 0.00 | 19 | 1006.0 |
| 20260504010817 | 56 | 265 | 0.0 | 0.0 | 0.00 | 0.00 | 0.00 | 18 | 1006.1 |
| 20260504005816 | 56 | 265 | 0.0 | 0.0 | 0.00 | 0.00 | 0.00 | 19 | 1006.1 |